Location: Stilling
(56.0622°N, 9.9882°E)
Time: 13:13:57
(UTC+00:00)

COSMOS 2455 - Pass Details

Date: 13 July 2020
Orbit: 898 x 911 km, 67.1° (Epoch: 06 August)

Event Time Altitude Azimuth Distance (km) Brightness Sun altitude
Rises 22:11:04 0° 316° (NW) 3,554 7.2 -10.7°
Reaches altitude 10° 22:13:47 10° 308° (NW) 2,609 6.1 -10.8°
Maximum altitude 22:19:09 34° 245° (WSW) 1,453 3.9 -11.0°
Enters shadow 22:23:56 13° 185° (S) 2,406 4.5 -11.2°
